Weather observations for the past three days for
Hatteras, Mitchell Field
Imperial (Metric)
Date Time (edt) Wind (mph) Vis. (mi.) Weather Sky Cond. Temperature (ºF) Relative Humidity Wind Chill (°F) Heat Index (°F) Pressure Precipitation (in)
Air Dwpt 6 hour altimeter (in) sea level (mb) 1 hr 3 hr 6 hr
Max. Min.
24 09:51 SW 9 10.00 Fair CLR 80.1 75.9 87% 85 30.18 1022.1
24 08:51 SW 13 G 21 8.00 Partly Cloudy FEW015 FEW026 SCT033 81 77 88% 88 30.19 1022.4
24 07:51 SW 8 G 21 7.00 Fair CLR 80.1 78.1 81 80.1 94% 86 30.18 1022.0
24 06:51 SW 8 4.00 Fog/Mist BKN018 BKN026 80.1 79 97% 87 30.18 1021.9
24 05:51 SW 8 7.00 Fair CLR 80.1 79 97% 87 30.17 1021.7
24 04:51 SW 8 7.00 Mostly Cloudy BKN020 81 79 94% 89 30.16 1021.3
24 03:51 SW 10 G 20 7.00 Fair CLR 81 79 94% 89 30.17 1021.5
24 02:51 SW 9 8.00 Fair CLR 81 79 94% 89 30.16 1021.1
24 01:51 SW 8 8.00 Fair CLR 81 79 81 80.1 94% 89 30.16 1021.3
24 00:51 SW 9 8.00 Fair CLR 81 80.1 97% 90 30.17 1021.7
23 23:51 SW 6 6.00 Fog/Mist CLR 80.1 79 97% 87 30.16 1021.4
23 22:51 SW 7 9.00 Fair CLR 81 79 94% 89 30.16 1021.2
23 21:51 W 6 8.00 Fair CLR 81 79 94% 89 30.15 1020.8
23 20:51 SW 5 10.00 Fair CLR 81 79 94% 89 30.12 1020.0
23 19:51 S 7 9.00 Fair CLR 81 79 87.1 81 94% 89 30.12 1019.9
23 18:51 S 8 10.00 Fair CLR 82 79 90% 92 30.11 1019.5
23 17:51 S 10 10.00 Fair CLR 82.9 79 88% 94 30.09 1019.0
23 15:51 S 9 10.00 Fair CLR 84.9 80.1 85% 99 30.11 1019.5
23 14:51 S 8 10.00 Fair CLR 86 80.1 83% 101 30.12 1019.8
23 13:51 S 7 10.00 Fair CLR 86 81 86 80.1 85% 102 30.14 1020.5
23 12:51 S 8 10.00 Fair CLR 84.9 80.1 85% 99 30.15 1020.7
23 11:51 SW 6 10.00 Fair CLR 86 81 85% 102 30.15 1020.8
23 10:51 SW 7 10.00 Fair CLR 82.9 80.1 91% 95 30.14 1020.7
23 09:51 SW 6 10.00 Fair CLR 82.9 80.1 91% 95 30.13 1020.4
23 08:51 Vrbl 5 10.00 Fair CLR 82 79 90% 92 30.13 1020.3
23 07:51 SW 6 8.00 Fair CLR 80.1 78.1 80.1 78.1 94% 86 30.13 1020.2
23 06:51 SW 7 6.00 Fog/Mist CLR 79 78.1 97% 83 30.11 1019.7
23 05:51 SW 6 6.00 Fog/Mist CLR 78.1 78.1 100% 81 30.1 1019.2
23 04:51 SW 7 8.00 A Few Clouds FEW020 79 77 94% 83 30.09 1018.7
23 03:51 SW 10 9.00 Fair CLR 79 77 94% 83 30.08 1018.5
23 02:51 SW 13 G 21 9.00 Fair CLR 80.1 77 90% 86 30.07 1018.3
23 01:51 SW 10 9.00 Fair CLR 79 75.9 81 78.1 90% 83 30.08 1018.7
23 00:51 SW 8 8.00 Fair CLR 80.1 79 97% 87 30.09 1018.9
22 23:51 SW 9 8.00 Fair CLR 80.1 79 97% 87 30.1 1019.1
22 22:51 SW 7 8.00 A Few Clouds FEW023 80.1 79 97% 87 30.09 1018.9
22 21:51 SW 8 9.00 A Few Clouds FEW070 80.1 78.1 94% 86 30.08 1018.5
22 20:51 S 10 10.00 Fair CLR 80.1 77 90% 86 30.06 1017.8
22 19:51 S 8 8.00 A Few Clouds FEW024 80.1 79 84 80.1 97% 87 30.05 1017.5
22 18:51 SW 9 9.00 Fair CLR 81 78.1 91% 89 30.05 1017.5
22 17:51 S 9 10.00 Fair CLR 82 79 90% 92 30.03 1016.7
22 16:51 S 12 10.00 Fair CLR 82 79 90% 92 30.03 1016.9
22 15:51 S 8 10.00 Fair CLR 82 78.1 88% 91 30.05 1017.6
22 14:51 S 9 10.00 Fair CLR 82 78.1 88% 91 30.07 1018.1
22 13:51 S 9 10.00 Fair CLR 82 78.1 82.9 75.9 88% 91 30.09 1018.9 0.3
22 12:51 S 7 10.00 Fair CLR 81 78.1 91% 89 30.1 1019.3
22 11:51 S 5 10.00 Fair CLR 79 77 94% 83 30.11 1019.5
22 10:51 SE 5 6.00 Fog/Mist FEW040 FEW055 SCT110 78.1 78.1 100% 81 30.1 1019.3 0.13 0.3
22 09:51 Vrbl 6 0.50 Heavy Rain Fog SCT020 BKN033 BKN055 77 75.9 96% 78 30.12 1019.8 0.07
22 08:51 Calm 8.00 Thunderstorm FEW044 SCT080 78.1 77 97% 81 30.09 1018.9 0.1
22 07:51 SE 3 7.00 Fair CLR 80.1 79 80.1 78.1 97% 87 30.08 1018.5
22 06:51 S 3 6.00 Fog/Mist SCT016 79 79 100% 84 30.07 1018.3
22 05:51 S 3 6.00 Fog/Mist SCT019 79 78.1 97% 83 30.06 1017.9
22 04:51 SW 5 6.00 Fog/Mist CLR 78.1 78.1 100% 81 30.06 1017.7
22 03:51 SW 5 10.00 Fair CLR 78.1 77 97% 81 30.06 1017.9
22 02:51 W 6 10.00 Fair CLR 79 77 94% 83 30.07 1018.2
22 01:51 SW 3 8.00 Fair CLR 79 78.1 80.1 79 97% 83 30.08 1018.5
22 00:51 SW 5 7.00 Fair CLR 79 78.1 97% 83 30.08 1018.6
21 23:51 SW 3 7.00 Fair CLR 80.1 79 97% 87 30.1 1019.0
21 22:51 SW 5 9.00 Fair CLR 80.1 78.1 94% 86 30.09 1018.7
21 21:51 SW 5 10.00 Fair CLR 80.1 78.1 94% 86 30.09 1018.8
21 20:51 S 3 10.00 Light Rain FEW015 80.1 78.1 94% 86 30.07 1018.1
21 19:51 S 6 8.00 Fair CLR 80.1 77 86 80.1 90% 86 30.05 1017.6
21 18:51 S 6 10.00 Fair CLR 81 78.1 91% 89 30.04 1017.1
21 17:51 S 5 10.00 Fair CLR 82 78.1 88% 91 30.03 1017.0
21 16:51 S 6 9.00 Partly Cloudy SCT016 81 78.1 91% 89 30.05 1017.6
21 15:51 Calm 10.00 Fair CLR 84.9 78.1 80% 97 30.05 1017.5
21 14:51 Calm 10.00 Mostly Cloudy SCT013 BKN023 82.9 77 82% 92 30.07 1018.1
21 13:51 Vrbl 5 10.00 Partly Cloudy FEW012 SCT120 81 77 82 79 88% 88 30.07 1018.3
21 12:51 Vrbl 6 10.00 A Few Clouds FEW014 81 77 88% 88 30.08 1018.5
21 11:51 SW 7 10.00 Fair CLR 81 77 88% 88 30.09 1018.7
21 10:51 SW 6 9.00 Partly Cloudy FEW015 SCT055 80.1 78.1 94% 86 30.08 1018.6
Date Time (edt) Wind (mph) Vis. (mi.) Weather Sky Cond. Air Dwpt Max. Min. Relative Humidity Wind Chill (°F) Heat Index (°F) altimeter (in) sea level (mb) 1 hr 3 hr 6 hr
6 hour
Temperature (ºF) Pressure Precipitation (in)